Location: Bay Harbour
(38.2612°N, 75.2555°W)
Time: 02:19:49
(UTC+00:00)

Timation 2 Rocket - Pass Details

Date: 29 October 2020
Orbit: 904 x 1077 km, 70.0° (Epoch: 02 December)

Event Time Altitude Azimuth Distance (km) Brightness Sun altitude
Rises 22:47:58 0° 335° (NNW) 3,769 7.3 -9.2°
Reaches altitude 10° 22:50:31 10° 334° (NNW) 2,837 6.6 -9.6°
Maximum altitude 22:57:13 81° 248° (WSW) 1,074 4.3 -10.9°
Drops below altitude 10° 23:04:04 10° 162° (SSE) 2,899 6.4 -12.3°
Sets 23:06:42 0° 162° (SSE) 3,856 7.0 -12.8°
